Regional Weather Roundup
Issued by NWS Sioux Falls, SD

Home | Current Version | Previous Version | Text Only | Print | Product List | Glossary Off
Versions: 1 2 3 4 5 6 7 8 9 10 11 12 13 14 15 16 17 18 19 20 21 22 23 24 25 26 27 28 29 30 31 32 33 34 35 36 37 38 39 40 41 42 43 44 45 46 47 48 49 50

948
ASUS43 KFSD 110610
RWRFSD

WEATHER ROUNDUP FOR SE SOUTH DAKOTA/SW MINNESOTA/NW IOWA
NATIONAL WEATHER SERVICE SIOUX FALLS SD
1200 AM CST MON DEC 11 2017

NOTE: "FAIR" INDICATES FEW OR NO CLOUDS BELOW 12,000 FEET WITH NO
SIGNIFICANT WEATHER AND OR OBSTRUCTIONS TO VISIBILITY.


SDZ038>040-050-052>070-110700-
SOUTHEAST SOUTH DAKOTA

CITY           SKY/WX    TMP DP  RH WIND       PRES   REMARKS
BROOKINGS      CLOUDY    34  27  75 NW6       29.91S WCI  29
CHAMBERLAIN    CLOUDY    43  22  42 W12       29.98F
6HR MIN TEMP:  33; 6HR MAX TEMP:  46;

HURON          CLOUDY    38  28  67 W12       29.94R
6HR MIN TEMP:  31; 6HR MAX TEMP:  39;

MADISON        FAIR      36  28  75 W10       29.93R
MITCHELL       PTCLDY    41  26  55 W14       29.96R
6HR MIN TEMP:  36; 6HR MAX TEMP:  42;

SIOUX FALLS    CLOUDY    36  28  73 SW3       29.91F
6HR MIN TEMP:  32; 6HR MAX TEMP:  37;

WINNER         FAIR      46  18  32 W13       30.01F
YANKTON        PTCLDY    34  25  69 S6        29.94F WCI  29
$$

MNZ071-072-080-081-089-090-097-098-110700-
SOUTHWEST MINNESOTA

CITY           SKY/WX    TMP DP  RH WIND       PRES   REMARKS
FAIRMONT       CLOUDY    30  27  88 S7        29.95F WCI  23
JACKSON        PTCLDY    32  28  86 MISG      29.94S
LUVERNE        CLOUDY    32  27  80 S5        29.92F WCI  27
MARSHALL       CLOUDY    36  28  73 SW10      29.88F
6HR MIN TEMP:  31; 6HR MAX TEMP:  37; 6HR PCP: TRACE;

MONTEVIDEO     CLOUDY    34  27  75 SW5       29.87F WCI  30
PIPESTONE      CLOUDY    32  27  80 W5        29.89F WCI  27
REDWOOD FALLS  CLOUDY    33  26  75 S9        29.89F WCI  25
TRACY          CLOUDY    36  30  78 SW7       29.88F
WINDOM           N/A     32  19  59 S3        29.92F
WORTHINGTON    CLOUDY    34  27  75 SW10      29.92F WCI  26
$$

IAZ001>003-012>014-020>022-031-032-NEZ013-014-SDZ071-110700-
NORTHWEST IOWA

CITY           SKY/WX    TMP DP  RH WIND       PRES   REMARKS
CHEROKEE       CLOUDY    31  26  83 S5        29.97F WCI  26
DENISON        CLOUDY    30  23  74 CALM      30.01F
ESTHERVILLE    PTCLDY    29  27  92 SW9       29.94F WCI  20
LE MARS        PTCLDY    32  27  80 S8        29.97F WCI  25
ORANGE CITY    PTCLDY    36  28  75 SW8       29.95F
SHELDON        CLOUDY    32  27  80 SW5       29.93F WCI  27
SIOUX CITY     CLOUDY    27  22  81 CALM      29.99F
6HR MIN TEMP:  27; 6HR MAX TEMP:  37;

SPENCER        CLOUDY    29  24  82 SW3       29.96F
6HR MIN TEMP:  28; 6HR MAX TEMP:  34;

STORM LAKE     CLOUDY    34  25  69 W10       29.97R WCI  26
$$

ABBREVIATIONS USED IN REMARKS
   TC - TEMPERATURE IN CELSIUS
  WCI - WIND CHILL INDEX
   HX - HEAT INDEX
  VSB - VISIBILITY





USA.gov is the U.S. government's official web portal to all federal, state and local government web resources and services.